{"data":{"norad_id":53153,"intl_designator":"2022-083X","name":"STARLINK-4098","alt_names":[],"object_type":"PAYLOAD","status":"ACTIVE","operator":null,"country":"US","launch_date":"2022-07-17","launch_site_code":"AFETR","launch_vehicle":null,"mission":null,"orbit_class":"UNKNOWN","rcs_meters":null,"size_class":null,"mass_kg":null,"dimensions":null,"purposes":["comms"],"wikipedia_slug":null,"has_3d_model":false,"image_url":null,"decayed_at":null,"tle_current":{"epoch":"2026-05-24T12:13:34.529952Z","epoch_age_seconds":114106,"freshness":"FRESH","line1":"1 53153U 22083X   26144.50942743 -.00000320  00000+0 -20225-5 0  9995","line2":"2 53153  53.2133 183.7560 0001377  78.9789 281.1358 15.08840877212801","mean_motion":15.08840877,"eccentricity":0.0001377,"inclination_deg":53.2133,"raan_deg":183.756,"arg_perigee_deg":78.9789,"mean_anomaly_deg":281.1358,"bstar":-2.0225e-6,"rev_number":21280,"period_min":95.437499205557,"perigee_km":538.78811656682,"apogee_km":540.69330008769,"semimajor_km":6917.8777083273,"source":"CELESTRAK","updated_at":"2026-05-25T13:38:17.319804Z"}}}